User: anonymous   Login
Location: Fort Worth, Tx
(32.7431°N, 97.3695°W)
Time: 04:46:24
(UTC-05:00)
Language:

Transit 4A - Orbit

View from above orbital plane
View from above orbital plane
View from above satellite
View from above satellite

Ground track
Ground track

The orbit data is extracted from the following two-line orbital elements,

1 00116U 61015A   24053.63879361  .00000099  00000-0  13478-3 0  9992
2 00116  66.8100 159.3450 0071772 150.4231 210.0938 13.92002497179005
Epoch (UTC): 22 February 2024 15:19:51
Eccentricity: 0.0071772
inclination: 66.8100°
perigee height: 869 km
apogee height: 974 km
right ascension of ascending node: 159.3450°
argument of perigee: 150.4231°
revolutions per day: 13.92002497
mean anomaly at epoch: 210.0938°
orbit number at epoch: 17900

The dashed part of the orbit path shows where the satellite is in the earth's shadow,  

DLR